Time,TemperatureF,DewpointF,PressureIn,WindDirection,WindDirectionDegrees,WindSpeedMPH,WindSpeedGustMPH,Humidity,HourlyPrecipIn,Conditions,Clouds,dailyrainin,SoftwareType,DateUTC
2013-03-28 00:00:00,34.2,30.3,27.48,SSE,158,0.0,0.0,86,0.00,,,0.00,WUHU216HW,2013-03-28 07:00:00,
2013-03-28 00:05:00,34.0,30.4,27.48,SSE,158,0.0,0.0,87,0.00,,,0.00,WUHU216HW,2013-03-28 07:05:00,
2013-03-28 00:10:00,34.0,30.4,27.48,SSE,158,0.0,0.0,87,0.00,,,0.00,WUHU216HW,2013-03-28 07:10:00,
2013-03-28 00:15:00,33.8,30.2,27.48,ESE,113,0.0,0.0,87,0.00,,,0.00,WUHU216HW,2013-03-28 07:15:00,
2013-03-28 00:20:00,33.7,30.2,27.48,ESE,113,0.0,0.0,87,0.00,,,0.00,WUHU216HW,2013-03-28 07:20:00,
2013-03-28 00:25:00,33.5,30.0,27.48,ESE,113,0.0,0.0,87,0.00,,,0.00,WUHU216HW,2013-03-28 07:25:00,
2013-03-28 00:30:00,33.5,30.0,27.48,ESE,113,0.0,0.0,87,0.00,,,0.00,WUHU216HW,2013-03-28 07:30:00,
2013-03-28 00:35:00,33.5,30.0,27.48,ESE,113,0.0,0.0,87,0.00,,,0.00,WUHU216HW,2013-03-28 07:35:00,
2013-03-28 00:40:00,33.5,30.0,27.48,ESE,113,0.0,0.0,87,0.00,,,0.00,WUHU216HW,2013-03-28 07:40:00,
2013-03-28 00:45:00,33.5,30.5,27.48,ESE,113,0.0,0.0,89,0.00,,,0.00,WUHU216HW,2013-03-28 07:45:00,
2013-03-28 00:50:00,33.5,30.2,27.48,ESE,113,0.0,0.0,88,0.00,,,0.00,WUHU216HW,2013-03-28 07:50:00,
2013-03-28 00:55:00,33.7,30.7,27.48,ESE,113,0.0,0.0,89,0.00,,,0.00,WUHU216HW,2013-03-28 07:55:00,
2013-03-28 01:00:00,33.8,30.9,27.48,ESE,113,0.0,0.0,89,0.00,,,0.00,WUHU216HW,2013-03-28 08:00:00,
2013-03-28 01:05:00,34.0,31.1,27.48,ESE,113,0.0,0.0,89,0.00,,,0.00,WUHU216HW,2013-03-28 08:05:00,
2013-03-28 01:10:00,34.0,31.1,27.48,South,180,0.0,0.0,89,0.00,,,0.00,WUHU216HW,2013-03-28 08:10:00,
2013-03-28 01:15:00,33.8,30.9,27.48,South,180,0.0,0.0,89,0.00,,,0.00,WUHU216HW,2013-03-28 08:15:00,
2013-03-28 01:20:00,33.8,30.6,27.48,South,180,0.0,0.0,88,0.00,,,0.00,WUHU216HW,2013-03-28 08:20:00,
2013-03-28 01:25:00,33.8,30.6,27.48,South,180,0.0,0.0,88,0.00,,,0.00,WUHU216HW,2013-03-28 08:25:00,
2013-03-28 01:30:00,34.0,31.1,27.48,SSE,158,0.0,0.0,89,0.00,,,0.00,WUHU216HW,2013-03-28 08:30:00,
2013-03-28 01:35:00,34.2,31.2,27.48,SE,135,0.0,0.0,89,0.00,,,0.00,WUHU216HW,2013-03-28 08:35:00,
2013-03-28 01:40:00,34.4,31.4,27.48,WSW,248,0.7,0.7,89,0.00,,,0.00,WUHU216HW,2013-03-28 08:40:00,
2013-03-28 01:45:00,34.6,31.6,27.48,WSW,248,0.0,0.7,89,0.00,,,0.00,WUHU216HW,2013-03-28 08:45:00,
2013-03-28 01:50:00,34.2,31.2,27.48,SW,225,0.0,0.4,89,0.00,,,0.00,WUHU216HW,2013-03-28 08:50:00,
2013-03-28 01:55:00,34.2,31.0,27.48,SW,225,0.0,0.0,88,0.00,,,0.00,WUHU216HW,2013-03-28 08:55:00,
2013-03-28 02:00:00,34.2,31.2,27.48,SE,135,0.0,0.0,89,0.00,,,0.00,WUHU216HW,2013-03-28 09:00:00,
2013-03-28 02:05:00,34.0,31.1,27.48,SSW,203,0.0,0.0,89,0.00,,,0.00,WUHU216HW,2013-03-28 09:05:00,
2013-03-28 02:10:00,34.0,31.1,27.48,SSW,203,0.0,0.0,89,0.00,,,0.00,WUHU216HW,2013-03-28 09:10:00,
2013-03-28 02:15:00,34.0,31.1,27.48,SSW,203,0.0,0.0,89,0.00,,,0.00,WUHU216HW,2013-03-28 09:15:00,
2013-03-28 02:20:00,34.0,30.8,27.48,SSW,203,0.0,0.0,88,0.00,,,0.00,WUHU216HW,2013-03-28 09:20:00,
2013-03-28 02:25:00,34.2,31.2,27.48,SSW,203,0.0,0.0,89,0.00,,,0.00,WUHU216HW,2013-03-28 09:25:00,
2013-03-28 02:30:00,34.2,31.0,27.48,SSW,203,0.0,0.0,88,0.00,,,0.00,WUHU216HW,2013-03-28 09:30:00,
2013-03-28 02:35:00,34.2,31.2,27.48,SSW,203,0.0,0.2,89,0.00,,,0.00,WUHU216HW,2013-03-28 09:35:00,
2013-03-28 02:40:00,34.2,31.2,27.48,SSW,203,0.0,0.2,89,0.00,,,0.00,WUHU216HW,2013-03-28 09:40:00,
2013-03-28 02:45:00,34.2,31.2,27.48,SSW,203,0.0,0.0,89,0.00,,,0.00,WUHU216HW,2013-03-28 09:45:00,
2013-03-28 02:50:00,34.2,31.0,27.48,SSW,203,0.0,0.0,88,0.00,,,0.00,WUHU216HW,2013-03-28 09:50:00,
2013-03-28 02:55:00,34.2,31.0,27.48,SSW,203,0.0,0.0,88,0.00,,,0.00,WUHU216HW,2013-03-28 09:55:00,
2013-03-28 03:00:00,34.2,31.0,27.48,SSE,158,0.0,0.0,88,0.00,,,0.00,WUHU216HW,2013-03-28 10:00:00,
2013-03-28 03:05:00,34.2,31.0,27.48,SSE,158,0.0,0.0,88,0.00,,,0.00,WUHU216HW,2013-03-28 10:05:00,
2013-03-28 03:10:00,34.4,31.4,27.48,SSE,158,0.0,0.0,89,0.00,,,0.00,WUHU216HW,2013-03-28 10:10:00,
2013-03-28 03:15:00,34.2,31.2,27.48,SSE,158,0.0,0.0,89,0.00,,,0.00,WUHU216HW,2013-03-28 10:15:00,
2013-03-28 03:20:00,34.2,31.0,27.48,SSE,158,0.0,0.0,88,0.00,,,0.00,WUHU216HW,2013-03-28 10:20:00,
2013-03-28 03:25:00,34.2,31.0,27.48,SSE,158,0.0,0.0,88,0.00,,,0.00,WUHU216HW,2013-03-28 10:25:00,
2013-03-28 03:30:00,34.2,31.2,27.49,SW,225,0.0,0.0,89,0.00,,,0.00,WUHU216HW,2013-03-28 10:30:00,
2013-03-28 03:35:00,33.8,30.9,27.49,SSW,203,0.0,0.0,89,0.00,,,0.00,WUHU216HW,2013-03-28 10:35:00,
2013-03-28 03:40:00,33.7,30.4,27.48,SSW,203,0.0,0.0,88,0.00,,,0.00,WUHU216HW,2013-03-28 10:40:00,
2013-03-28 03:45:00,33.3,30.1,27.48,ENE,68,0.0,0.0,88,0.00,,,0.00,WUHU216HW,2013-03-28 10:45:00,
2013-03-28 03:50:00,33.1,30.3,27.49,ENE,68,0.0,0.0,89,0.00,,,0.00,WUHU216HW,2013-03-28 10:50:00,
2013-03-28 03:55:00,33.1,30.3,27.48,NE,45,0.0,0.0,89,0.00,,,0.00,WUHU216HW,2013-03-28 10:55:00,
2013-03-28 04:00:00,32.9,29.8,27.49,NE,45,0.0,0.0,88,0.00,,,0.00,WUHU216HW,2013-03-28 11:00:00,
2013-03-28 04:05:00,32.8,29.9,27.49,NE,45,0.0,0.2,89,0.00,,,0.00,WUHU216HW,2013-03-28 11:05:00,
2013-03-28 04:10:00,32.8,29.9,27.49,NE,45,0.0,0.2,89,0.00,,,0.00,WUHU216HW,2013-03-28 11:10:00,
2013-03-28 04:15:00,32.8,30.2,27.49,ESE,113,0.0,0.0,90,0.00,,,0.00,WUHU216HW,2013-03-28 11:15:00,
2013-03-28 04:20:00,32.6,29.7,27.48,ESE,113,0.0,0.0,89,0.00,,,0.00,WUHU216HW,2013-03-28 11:20:00,
2013-03-28 04:25:00,32.6,30.2,27.49,ESE,113,0.0,0.4,91,0.00,,,0.00,WUHU216HW,2013-03-28 11:25:00,
2013-03-28 04:30:00,32.4,29.9,27.49,ESE,113,0.0,0.4,90,0.00,,,0.00,WUHU216HW,2013-03-28 11:30:00,
2013-03-28 04:35:00,32.2,29.7,27.49,ESE,113,0.0,0.0,90,0.00,,,0.00,WUHU216HW,2013-03-28 11:35:00,
2013-03-28 04:40:00,32.2,29.7,27.49,ESE,113,0.0,0.0,90,0.00,,,0.00,WUHU216HW,2013-03-28 11:40:00,
2013-03-28 04:45:00,32.0,29.5,27.49,NE,45,0.0,0.2,90,0.00,,,0.00,WUHU216HW,2013-03-28 11:45:00,
2013-03-28 04:50:00,32.2,29.7,27.49,NNE,23,0.0,0.4,90,0.00,,,0.00,WUHU216HW,2013-03-28 11:50:00,
2013-03-28 04:55:00,32.0,29.5,27.49,East,90,0.0,0.4,90,0.00,,,0.00,WUHU216HW,2013-03-28 11:55:00,
2013-03-28 05:00:00,32.0,29.5,27.49,ENE,68,0.0,0.0,90,0.00,,,0.00,WUHU216HW,2013-03-28 12:00:00,
2013-03-28 05:05:00,31.9,29.1,27.50,ENE,68,0.0,0.0,89,0.00,,,0.00,WUHU216HW,2013-03-28 12:05:00,
2013-03-28 05:10:00,31.7,29.2,27.50,ENE,68,0.0,0.0,90,0.00,,,0.00,WUHU216HW,2013-03-28 12:10:00,
2013-03-28 05:15:00,31.7,28.9,27.50,ENE,68,0.0,0.0,89,0.00,,,0.00,WUHU216HW,2013-03-28 12:15:00,
2013-03-28 05:20:00,31.5,28.7,27.50,East,90,0.0,0.0,89,0.00,,,0.00,WUHU216HW,2013-03-28 12:20:00,
2013-03-28 05:25:00,31.5,28.7,27.50,ENE,68,0.0,0.4,89,0.00,,,0.00,WUHU216HW,2013-03-28 12:25:00,
2013-03-28 05:30:00,31.5,29.0,27.50,East,90,0.0,0.4,90,0.00,,,0.00,WUHU216HW,2013-03-28 12:30:00,
2013-03-28 05:35:00,31.7,29.2,27.50,East,90,0.0,0.0,90,0.00,,,0.00,WUHU216HW,2013-03-28 12:35:00,
2013-03-28 05:40:00,31.5,28.7,27.50,East,90,0.0,0.0,89,0.00,,,0.00,WUHU216HW,2013-03-28 12:40:00,
2013-03-28 05:45:00,31.5,28.7,27.50,East,90,0.0,0.0,89,0.00,,,0.00,WUHU216HW,2013-03-28 12:45:00,
2013-03-28 05:50:00,31.7,29.2,27.50,ENE,68,0.0,0.0,90,0.00,,,0.00,WUHU216HW,2013-03-28 12:50:00,
2013-03-28 05:55:00,31.7,29.2,27.50,ENE,68,0.0,0.0,90,0.00,,,0.00,WUHU216HW,2013-03-28 12:55:00,
2013-03-28 06:00:00,31.5,29.0,27.50,ESE,113,0.0,0.0,90,0.00,,,0.00,WUHU216HW,2013-03-28 13:00:00,
2013-03-28 06:05:00,31.3,28.8,27.50,SE,135,0.0,0.2,90,0.00,,,0.00,WUHU216HW,2013-03-28 13:05:00,
2013-03-28 06:10:00,31.0,28.2,27.50,SE,135,0.0,0.2,89,0.00,,,0.00,WUHU216HW,2013-03-28 13:10:00,
2013-03-28 06:15:00,31.0,28.2,27.50,SE,135,0.0,0.0,89,0.00,,,0.00,WUHU216HW,2013-03-28 13:15:00,
2013-03-28 06:20:00,31.0,28.4,27.50,SW,225,0.0,0.4,90,0.00,,,0.00,WUHU216HW,2013-03-28 13:20:00,
2013-03-28 06:25:00,30.8,28.0,27.51,WSW,248,0.0,0.4,89,0.00,,,0.00,WUHU216HW,2013-03-28 13:25:00,
2013-03-28 06:30:00,30.8,28.0,27.51,West,270,0.0,0.4,89,0.00,,,0.00,WUHU216HW,2013-03-28 13:30:00,
2013-03-28 06:35:00,31.0,28.2,27.51,West,270,0.0,0.4,89,0.00,,,0.00,WUHU216HW,2013-03-28 13:35:00,
2013-03-28 06:40:00,31.0,28.4,27.51,West,270,0.0,0.0,90,0.00,,,0.00,WUHU216HW,2013-03-28 13:40:00,
2013-03-28 06:45:00,31.3,28.8,27.51,West,270,0.0,0.0,90,0.00,,,0.00,WUHU216HW,2013-03-28 13:45:00,
2013-03-28 06:50:00,31.3,28.8,27.51,East,90,0.0,0.4,90,0.00,,,0.00,WUHU216HW,2013-03-28 13:50:00,
2013-03-28 06:55:00,31.5,29.0,27.51,East,90,0.0,0.4,90,0.00,,,0.00,WUHU216HW,2013-03-28 13:55:00,
2013-03-28 07:00:00,31.7,29.4,27.51,East,90,0.0,0.2,91,0.00,,,0.00,WUHU216HW,2013-03-28 14:00:00,
2013-03-28 07:05:00,31.7,29.4,27.51,East,90,0.0,0.2,91,0.00,,,0.00,WUHU216HW,2013-03-28 14:05:00,
2013-03-28 07:10:00,31.9,29.6,27.51,East,90,0.0,0.0,91,0.00,,,0.00,WUHU216HW,2013-03-28 14:10:00,
2013-03-28 07:15:00,32.2,30.2,27.51,East,90,0.0,0.0,92,0.00,,,0.00,WUHU216HW,2013-03-28 14:15:00,
2013-03-28 07:20:00,32.6,30.5,27.51,WSW,248,0.0,0.0,92,0.00,,,0.00,WUHU216HW,2013-03-28 14:20:00,
2013-03-28 07:25:00,32.8,30.7,27.52,WSW,248,0.0,0.0,92,0.00,,,0.00,WUHU216HW,2013-03-28 14:25:00,
2013-03-28 07:30:00,32.8,30.7,27.52,WSW,248,0.0,0.0,92,0.00,,,0.00,WUHU216HW,2013-03-28 14:30:00,
2013-03-28 07:35:00,32.8,30.7,27.52,SSE,158,0.0,0.0,92,0.00,,,0.00,WUHU216HW,2013-03-28 14:35:00,
2013-03-28 07:40:00,33.1,31.1,27.52,ESE,113,0.0,0.4,92,0.00,,,0.00,WUHU216HW,2013-03-28 14:40:00,
2013-03-28 07:45:00,33.5,31.3,27.52,ESE,113,0.0,0.4,92,0.00,,,0.00,WUHU216HW,2013-03-28 14:45:00,
2013-03-28 07:50:00,33.8,31.7,27.52,ESE,113,0.0,0.0,92,0.00,,,0.00,WUHU216HW,2013-03-28 14:50:00,
2013-03-28 07:55:00,34.2,32.0,27.52,ESE,113,0.0,0.0,92,0.00,,,0.00,WUHU216HW,2013-03-28 14:55:00,
2013-03-28 08:00:00,34.7,32.3,27.52,ESE,113,0.0,0.0,91,0.00,,,0.00,WUHU216HW,2013-03-28 15:00:00,
2013-03-28 08:05:00,34.9,32.8,27.53,ESE,113,0.0,0.0,92,0.00,,,0.00,WUHU216HW,2013-03-28 15:05:00,
2013-03-28 08:10:00,35.1,32.7,27.53,ESE,113,0.0,0.0,91,0.00,,,0.00,WUHU216HW,2013-03-28 15:10:00,
2013-03-28 08:15:00,35.5,33.0,27.53,ESE,113,0.0,0.0,91,0.00,,,0.00,WUHU216HW,2013-03-28 15:15:00,
2013-03-28 08:20:00,35.8,33.4,27.53,ENE,68,0.4,0.4,91,0.00,,,0.00,WUHU216HW,2013-03-28 15:20:00,
2013-03-28 08:25:00,36.5,34.4,27.53,ENE,68,0.0,0.4,92,0.00,,,0.00,WUHU216HW,2013-03-28 15:25:00,
2013-03-28 08:30:00,37.1,34.9,27.53,ENE,68,0.0,0.0,92,0.00,,,0.00,WUHU216HW,2013-03-28 15:30:00,
2013-03-28 08:35:00,38.0,35.8,27.53,East,90,0.0,0.0,92,0.00,,,0.00,WUHU216HW,2013-03-28 15:35:00,
2013-03-28 08:40:00,38.5,36.4,27.53,SE,135,0.2,0.2,92,0.00,,,0.00,WUHU216HW,2013-03-28 15:40:00,
2013-03-28 08:45:00,39.2,37.4,27.53,SSE,158,0.2,1.6,93,0.00,,,0.00,WUHU216HW,2013-03-28 15:45:00,
2013-03-28 08:50:00,40.0,37.8,27.53,ESE,113,0.0,1.6,92,0.00,,,0.00,WUHU216HW,2013-03-28 15:50:00,
2013-03-28 08:55:00,40.7,38.3,27.53,SSE,158,0.9,2.2,91,0.00,,,0.00,WUHU216HW,2013-03-28 15:55:00,
2013-03-28 09:00:00,40.9,38.2,27.53,SE,135,1.3,2.2,90,0.00,,,0.00,WUHU216HW,2013-03-28 16:00:00,
2013-03-28 09:05:00,41.4,38.7,27.53,NNE,23,0.0,1.3,90,0.00,,,0.00,WUHU216HW,2013-03-28 16:05:00,
2013-03-28 09:10:00,41.8,38.8,27.53,SE,135,1.3,1.8,89,0.00,,,0.00,WUHU216HW,2013-03-28 16:10:00,
2013-03-28 09:15:00,42.1,38.5,27.53,ESE,113,1.1,2.2,87,0.00,,,0.00,WUHU216HW,2013-03-28 16:15:00,
2013-03-28 09:20:00,42.3,38.7,27.54,SE,135,1.3,2.5,87,0.00,,,0.00,WUHU216HW,2013-03-28 16:20:00,
2013-03-28 09:25:00,42.8,38.9,27.54,SE,135,0.4,2.5,86,0.00,,,0.00,WUHU216HW,2013-03-28 16:25:00,
2013-03-28 09:30:00,42.8,38.9,27.54,SE,135,0.4,1.6,86,0.00,,,0.00,WUHU216HW,2013-03-28 16:30:00,
2013-03-28 09:35:00,43.2,39.2,27.54,SE,135,0.4,1.1,86,0.00,,,0.00,WUHU216HW,2013-03-28 16:35:00,
2013-03-28 09:40:00,43.6,39.3,27.54,SE,135,1.8,1.8,85,0.00,,,0.00,WUHU216HW,2013-03-28 16:40:00,
2013-03-28 09:45:00,43.9,40.0,27.54,SE,135,1.8,1.8,86,0.00,,,0.00,WUHU216HW,2013-03-28 16:45:00,
2013-03-28 09:50:00,44.3,39.8,27.54,SE,135,1.1,1.8,84,0.00,,,0.00,WUHU216HW,2013-03-28 16:50:00,
2013-03-28 09:55:00,44.3,39.8,27.54,SE,135,1.8,2.2,84,0.00,,,0.00,WUHU216HW,2013-03-28 16:55:00,
2013-03-28 10:00:00,45.0,40.5,27.54,SSE,158,1.1,2.2,84,0.00,,,0.00,WUHU216HW,2013-03-28 17:00:00,
2013-03-28 10:05:00,45.2,40.3,27.54,ESE,113,1.8,2.5,83,0.00,,,0.00,WUHU216HW,2013-03-28 17:05:00,
2013-03-28 10:10:00,45.7,40.9,27.54,WSW,248,0.0,2.5,83,0.00,,,0.00,WUHU216HW,2013-03-28 17:10:00,
2013-03-28 10:15:00,46.6,40.9,27.54,SE,135,2.5,2.5,80,0.00,,,0.00,WUHU216HW,2013-03-28 17:15:00,
2013-03-28 10:20:00,47.0,41.1,27.54,SE,135,1.1,2.5,80,0.00,,,0.00,WUHU216HW,2013-03-28 17:20:00,
2013-03-28 10:25:00,47.7,41.5,27.54,West,270,0.4,1.8,79,0.00,,,0.00,WUHU216HW,2013-03-28 17:25:00,
2013-03-28 10:30:00,47.9,41.3,27.54,WSW,248,0.2,1.8,78,0.00,,,0.00,WUHU216HW,2013-03-28 17:30:00,
2013-03-28 10:35:00,48.1,41.5,27.55,South,180,1.1,1.3,78,0.00,,,0.00,WUHU216HW,2013-03-28 17:35:00,
2013-03-28 10:40:00,48.8,41.9,27.55,SE,135,1.8,1.8,77,0.00,,,0.00,WUHU216HW,2013-03-28 17:40:00,
2013-03-28 10:45:00,49.9,43.2,27.55,NNW,338,0.2,2.5,78,0.00,,,0.00,WUHU216HW,2013-03-28 17:45:00,
2013-03-28 10:50:00,50.8,43.5,27.55,SE,135,2.0,2.5,76,0.00,,,0.00,WUHU216HW,2013-03-28 17:50:00,
2013-03-28 10:55:00,51.1,42.1,27.55,SE,135,1.3,2.0,71,0.00,,,0.00,WUHU216HW,2013-03-28 17:55:00,
2013-03-28 11:00:00,51.3,42.9,27.54,WSW,248,0.0,1.6,73,0.00,,,0.00,WUHU216HW,2013-03-28 18:00:00,
2013-03-28 11:05:00,51.7,43.0,27.54,NNE,23,0.4,1.1,72,0.00,,,0.00,WUHU216HW,2013-03-28 18:05:00,
2013-03-28 11:10:00,52.2,42.4,27.54,SE,135,2.9,2.9,69,0.00,,,0.00,WUHU216HW,2013-03-28 18:10:00,
2013-03-28 11:15:00,51.5,42.1,27.54,ESE,113,1.1,2.9,70,0.00,,,0.00,WUHU216HW,2013-03-28 18:15:00,
2013-03-28 11:20:00,51.8,42.0,27.54,SSE,158,2.5,3.1,69,0.00,,,0.00,WUHU216HW,2013-03-28 18:20:00,
2013-03-28 11:25:00,52.6,42.8,27.54,NW,315,1.6,3.1,69,0.00,,,0.00,WUHU216HW,2013-03-28 18:25:00,
2013-03-28 11:30:00,53.5,43.6,27.54,North,0,0.9,3.1,69,0.00,,,0.00,WUHU216HW,2013-03-28 18:30:00,
2013-03-28 11:35:00,54.7,43.9,27.54,ESE,113,1.1,4.0,67,0.00,,,0.00,WUHU216HW,2013-03-28 18:35:00,
2013-03-28 11:40:00,55.8,43.4,27.54,WSW,248,1.8,4.0,63,0.00,,,0.00,WUHU216HW,2013-03-28 18:40:00,
2013-03-28 11:45:00,56.5,43.2,27.54,SE,135,0.7,2.5,61,0.00,,,0.00,WUHU216HW,2013-03-28 18:45:00,
2013-03-28 11:50:00,56.9,44.0,27.54,SSE,158,1.6,2.5,62,0.00,,,0.00,WUHU216HW,2013-03-28 18:50:00,
2013-03-28 11:55:00,58.1,45.2,27.54,SSE,158,1.8,2.5,62,0.00,,,0.00,WUHU216HW,2013-03-28 18:55:00,
2013-03-28 12:00:00,58.1,43.5,27.54,SE,135,2.0,4.0,58,0.00,,,0.00,WUHU216HW,2013-03-28 19:00:00,
2013-03-28 12:05:00,58.0,43.7,27.54,West,270,0.9,4.0,59,0.00,,,0.00,WUHU216HW,2013-03-28 19:05:00,
2013-03-28 12:10:00,58.7,44.4,27.54,WNW,293,1.1,4.7,59,0.00,,,0.00,WUHU216HW,2013-03-28 19:10:00,
2013-03-28 12:15:00,58.0,42.3,27.54,SW,225,1.1,4.7,56,0.00,,,0.00,WUHU216HW,2013-03-28 19:15:00,
2013-03-28 12:20:00,58.7,43.5,27.54,SW,225,1.1,3.4,57,0.00,,,0.00,WUHU216HW,2013-03-28 19:20:00,
2013-03-28 12:25:00,58.9,43.7,27.54,WSW,248,0.7,1.1,57,0.00,,,0.00,WUHU216HW,2013-03-28 19:25:00,
2013-03-28 12:30:00,58.1,42.5,27.53,ENE,68,0.9,1.1,56,0.00,,,0.00,WUHU216HW,2013-03-28 19:30:00,
2013-03-28 12:35:00,58.0,43.3,27.54,NNE,23,1.3,1.3,58,0.00,,,0.00,WUHU216HW,2013-03-28 19:35:00,
2013-03-28 12:40:00,58.3,43.1,27.53,South,180,0.9,2.2,57,0.00,,,0.00,WUHU216HW,2013-03-28 19:40:00,
2013-03-28 12:45:00,59.0,42.0,27.53,SW,225,2.5,2.5,53,0.00,,,0.00,WUHU216HW,2013-03-28 19:45:00,
2013-03-28 12:50:00,59.2,41.6,27.53,ESE,113,0.4,4.0,52,0.00,,,0.00,WUHU216HW,2013-03-28 19:50:00,
2013-03-28 12:55:00,59.9,40.8,27.53,NNW,338,2.7,4.0,49,0.00,,,0.00,WUHU216HW,2013-03-28 19:55:00,
2013-03-28 13:00:00,59.6,41.0,27.53,SSW,203,3.8,4.5,50,0.00,,,0.00,WUHU216HW,2013-03-28 20:00:00,
2013-03-28 13:05:00,59.8,42.1,27.53,NW,315,0.2,4.5,52,0.00,,,0.00,WUHU216HW,2013-03-28 20:05:00,
2013-03-28 13:10:00,60.5,41.8,27.53,East,90,0.4,2.5,50,0.00,,,0.00,WUHU216HW,2013-03-28 20:10:00,
2013-03-28 13:15:00,62.1,41.0,27.53,WSW,248,1.6,2.5,46,0.00,,,0.00,WUHU216HW,2013-03-28 20:15:00,
2013-03-28 13:20:00,62.1,39.8,27.53,SE,135,0.4,4.0,44,0.00,,,0.00,WUHU216HW,2013-03-28 20:20:00,
2013-03-28 13:25:00,61.9,41.4,27.53,WSW,248,0.4,4.0,47,0.00,,,0.00,WUHU216HW,2013-03-28 20:25:00,
2013-03-28 13:30:00,61.0,40.0,27.53,SSW,203,1.3,3.8,46,0.00,,,0.00,WUHU216HW,2013-03-28 20:30:00,
2013-03-28 13:35:00,60.5,40.7,27.53,NNW,338,0.0,3.8,48,0.00,,,0.00,WUHU216HW,2013-03-28 20:35:00,
2013-03-28 13:40:00,59.9,40.1,27.53,NE,45,0.4,2.0,48,0.00,,,0.00,WUHU216HW,2013-03-28 20:40:00,
2013-03-28 13:45:00,59.0,40.0,27.53,SSW,203,0.9,2.0,49,0.00,,,0.00,WUHU216HW,2013-03-28 20:45:00,
2013-03-28 13:50:00,58.3,40.8,27.53,WSW,248,2.5,2.5,52,0.00,,,0.00,WUHU216HW,2013-03-28 20:50:00,
2013-03-28 13:55:00,58.1,40.6,27.53,SSE,158,0.4,2.5,52,0.00,,,0.00,WUHU216HW,2013-03-28 20:55:00,
2013-03-28 14:00:00,58.3,42.2,27.53,ESE,113,0.2,1.3,55,0.00,,,0.00,WUHU216HW,2013-03-28 21:00:00,
2013-03-28 14:05:00,58.1,42.5,27.53,SE,135,0.0,1.6,56,0.00,,,0.00,WUHU216HW,2013-03-28 21:05:00,
2013-03-28 14:10:00,58.0,41.9,27.53,WSW,248,1.6,1.6,55,0.00,,,0.00,WUHU216HW,2013-03-28 21:10:00,
2013-03-28 14:15:00,58.1,42.0,27.52,SE,135,0.0,1.6,55,0.00,,,0.00,WUHU216HW,2013-03-28 21:15:00,
2013-03-28 14:20:00,58.5,40.5,27.53,SW,225,2.0,2.0,51,0.00,,,0.00,WUHU216HW,2013-03-28 21:20:00,
2013-03-28 14:25:00,58.3,39.9,27.53,West,270,1.1,2.0,50,0.00,,,0.00,WUHU216HW,2013-03-28 21:25:00,
2013-03-28 14:30:00,58.3,39.2,27.53,SSW,203,0.4,2.0,49,0.00,,,0.00,WUHU216HW,2013-03-28 21:30:00,
2013-03-28 14:35:00,58.5,41.0,27.52,SE,135,0.0,1.1,52,0.00,,,0.00,WUHU216HW,2013-03-28 21:35:00,
2013-03-28 14:40:00,58.5,40.5,27.52,East,90,0.2,3.1,51,0.00,,,0.00,WUHU216HW,2013-03-28 21:40:00,
2013-03-28 14:45:00,59.4,41.3,27.52,ENE,68,2.7,3.1,51,0.00,,,0.00,WUHU216HW,2013-03-28 21:45:00,
2013-03-28 14:50:00,59.9,42.3,27.52,ENE,68,0.4,2.7,52,0.00,,,0.00,WUHU216HW,2013-03-28 21:50:00,
2013-03-28 14:55:00,60.3,42.1,27.52,SSE,158,1.6,1.8,51,0.00,,,0.00,WUHU216HW,2013-03-28 21:55:00,
2013-03-28 15:00:00,59.8,41.1,27.52,WSW,248,0.9,2.5,50,0.00,,,0.00,WUHU216HW,2013-03-28 22:00:00,
2013-03-28 15:05:00,59.8,40.6,27.52,SE,135,0.4,2.5,49,0.00,,,0.00,WUHU216HW,2013-03-28 22:05:00,
2013-03-28 15:10:00,60.8,41.6,27.51,SSW,203,1.3,2.5,49,0.00,,,0.00,WUHU216HW,2013-03-28 22:10:00,
2013-03-28 15:15:00,61.7,41.2,27.51,WNW,293,0.4,3.4,47,0.00,,,0.00,WUHU216HW,2013-03-28 22:15:00,
2013-03-28 15:20:00,61.7,38.4,27.51,South,180,1.3,6.3,42,0.00,,,0.00,WUHU216HW,2013-03-28 22:20:00,
2013-03-28 15:25:00,61.2,38.4,27.52,WSW,248,2.5,6.3,43,0.00,,,0.00,WUHU216HW,2013-03-28 22:25:00,
2013-03-28 15:30:00,60.5,39.5,27.51,WSW,248,0.9,3.4,46,0.00,,,0.00,WUHU216HW,2013-03-28 22:30:00,
2013-03-28 15:35:00,60.7,39.1,27.51,SW,225,2.7,2.7,45,0.00,,,0.00,WUHU216HW,2013-03-28 22:35:00,
2013-03-28 15:40:00,60.5,39.5,27.51,SW,225,1.1,2.7,46,0.00,,,0.00,WUHU216HW,2013-03-28 22:40:00,
2013-03-28 15:45:00,60.5,39.5,27.51,SSW,203,1.8,2.7,46,0.00,,,0.00,WUHU216HW,2013-03-28 22:45:00,
2013-03-28 15:50:00,60.5,38.9,27.51,SW,225,3.4,4.5,45,0.00,,,0.00,WUHU216HW,2013-03-28 22:50:00,
2013-03-28 15:55:00,60.7,39.7,27.51,SW,225,2.2,4.5,46,0.00,,,0.00,WUHU216HW,2013-03-28 22:55:00,
2013-03-28 16:00:00,60.3,39.3,27.51,SW,225,2.5,4.0,46,0.00,,,0.00,WUHU216HW,2013-03-28 23:00:00,
2013-03-28 16:05:00,60.1,40.3,27.51,SSE,158,2.2,4.0,48,0.00,,,0.00,WUHU216HW,2013-03-28 23:05:00,
2013-03-28 16:10:00,60.3,39.9,27.51,WSW,248,1.8,2.7,47,0.00,,,0.00,WUHU216HW,2013-03-28 23:10:00,
2013-03-28 16:15:00,60.1,38.6,27.51,SW,225,3.1,4.0,45,0.00,,,0.00,WUHU216HW,2013-03-28 23:15:00,
2013-03-28 16:20:00,59.4,39.7,27.51,SSW,203,3.1,4.3,48,0.00,,,0.00,WUHU216HW,2013-03-28 23:20:00,
2013-03-28 16:25:00,59.4,40.9,27.51,South,180,1.8,4.3,50,0.00,,,0.00,WUHU216HW,2013-03-28 23:25:00,
2013-03-28 16:30:00,59.2,40.1,27.52,SW,225,1.8,3.8,49,0.00,,,0.00,WUHU216HW,2013-03-28 23:30:00,
2013-03-28 16:35:00,58.9,40.8,27.51,SW,225,2.5,4.0,51,0.00,,,0.00,WUHU216HW,2013-03-28 23:35:00,
2013-03-28 16:40:00,58.7,40.1,27.52,SSW,203,2.0,4.7,50,0.00,,,0.00,WUHU216HW,2013-03-28 23:40:00,
2013-03-28 16:45:00,58.9,40.3,27.52,SW,225,1.3,4.7,50,0.00,,,0.00,WUHU216HW,2013-03-28 23:45:00,
2013-03-28 16:50:00,58.7,40.1,27.52,SW,225,0.9,3.6,50,0.00,,,0.00,WUHU216HW,2013-03-28 23:50:00,
2013-03-28 16:55:00,58.3,39.9,27.52,WSW,248,0.4,3.4,50,0.00,,,0.00,WUHU216HW,2013-03-28 23:55:00,
2013-03-28 17:00:00,58.3,39.9,27.52,SSW,203,2.5,2.9,50,0.00,,,0.00,WUHU216HW,2013-03-29 00:00:00,
2013-03-28 17:05:00,58.0,40.0,27.52,WSW,248,2.9,3.4,51,0.00,,,0.00,WUHU216HW,2013-03-29 00:05:00,
2013-03-28 17:10:00,58.0,40.0,27.51,SW,225,1.6,3.4,51,0.00,,,0.00,WUHU216HW,2013-03-29 00:10:00,
2013-03-28 17:15:00,57.6,39.7,27.52,SSW,203,2.0,2.5,51,0.00,,,0.00,WUHU216HW,2013-03-29 00:15:00,
2013-03-28 17:20:00,57.6,40.1,27.52,SW,225,2.2,2.5,52,0.00,,,0.00,WUHU216HW,2013-03-29 00:20:00,
2013-03-28 17:25:00,57.6,39.7,27.52,SSW,203,1.6,2.2,51,0.00,,,0.00,WUHU216HW,2013-03-29 00:25:00,
2013-03-28 17:30:00,57.4,40.0,27.52,SW,225,2.0,3.1,52,0.00,,,0.00,WUHU216HW,2013-03-29 00:30:00,
2013-03-28 17:35:00,57.2,39.8,27.52,SW,225,2.5,3.1,52,0.00,,,0.00,WUHU216HW,2013-03-29 00:35:00,
2013-03-28 17:40:00,56.9,40.0,27.52,SW,225,1.8,2.5,53,0.00,,,0.00,WUHU216HW,2013-03-29 00:40:00,
2013-03-28 17:45:00,56.9,40.0,27.52,WSW,248,1.1,2.2,53,0.00,,,0.00,WUHU216HW,2013-03-29 00:45:00,
2013-03-28 17:50:00,56.7,40.2,27.52,SW,225,0.4,2.2,54,0.00,,,0.00,WUHU216HW,2013-03-29 00:50:00,
2013-03-28 17:55:00,56.7,40.2,27.52,WSW,248,1.1,1.1,54,0.00,,,0.00,WUHU216HW,2013-03-29 00:55:00,
2013-03-28 18:00:00,56.5,40.1,27.52,WSW,248,1.8,1.8,54,0.00,,,0.00,WUHU216HW,2013-03-29 01:00:00,
2013-03-28 18:05:00,56.5,40.1,27.52,WSW,248,1.1,1.8,54,0.00,,,0.00,WUHU216HW,2013-03-29 01:05:00,
2013-03-28 18:10:00,56.3,39.9,27.52,WSW,248,2.2,2.2,54,0.00,,,0.00,WUHU216HW,2013-03-29 01:10:00,
2013-03-28 18:15:00,56.2,39.3,27.52,WSW,248,2.9,2.9,53,0.00,,,0.00,WUHU216HW,2013-03-29 01:15:00,
2013-03-28 18:20:00,56.0,39.5,27.52,SW,225,1.1,2.9,54,0.00,,,0.00,WUHU216HW,2013-03-29 01:20:00,
2013-03-28 18:25:00,55.8,39.3,27.52,SW,225,0.4,1.8,54,0.00,,,0.00,WUHU216HW,2013-03-29 01:25:00,
2013-03-28 18:30:00,55.8,39.3,27.52,SW,225,0.9,1.6,54,0.00,,,0.00,WUHU216HW,2013-03-29 01:30:00,
2013-03-28 18:35:00,55.6,39.6,27.52,SW,225,0.2,1.3,55,0.00,,,0.00,WUHU216HW,2013-03-29 01:35:00,
2013-03-28 18:40:00,55.4,39.9,27.52,SW,225,1.3,1.8,56,0.00,,,0.00,WUHU216HW,2013-03-29 01:40:00,
2013-03-28 18:45:00,55.1,39.6,27.52,SW,225,0.4,1.8,56,0.00,,,0.00,WUHU216HW,2013-03-29 01:45:00,
2013-03-28 18:50:00,55.1,39.6,27.52,SW,225,0.7,1.1,56,0.00,,,0.00,WUHU216HW,2013-03-29 01:50:00,
2013-03-28 18:55:00,55.1,40.1,27.52,SW,225,0.0,1.1,57,0.00,,,0.00,WUHU216HW,2013-03-29 01:55:00,
2013-03-28 19:00:00,54.7,39.7,27.52,WSW,248,0.2,0.4,57,0.00,,,0.00,WUHU216HW,2013-03-29 02:00:00,
2013-03-28 19:05:00,54.4,39.9,27.53,SW,225,0.0,0.4,58,0.00,,,0.00,WUHU216HW,2013-03-29 02:05:00,
2013-03-28 19:10:00,53.8,39.3,27.53,SW,225,0.0,0.4,58,0.00,,,0.00,WUHU216HW,2013-03-29 02:10:00,
2013-03-28 19:15:00,53.5,39.1,27.53,SW,225,0.0,0.0,58,0.00,,,0.00,WUHU216HW,2013-03-29 02:15:00,
2013-03-28 19:20:00,52.9,39.0,27.53,SW,225,0.0,0.0,59,0.00,,,0.00,WUHU216HW,2013-03-29 02:20:00,
2013-03-28 19:25:00,52.2,39.2,27.53,SW,225,0.0,0.0,61,0.00,,,0.00,WUHU216HW,2013-03-29 02:25:00,
2013-03-28 19:30:00,51.7,39.0,27.53,SW,225,0.0,0.0,62,0.00,,,0.00,WUHU216HW,2013-03-29 02:30:00,
2013-03-28 19:35:00,51.1,38.9,27.53,SW,225,0.0,0.0,63,0.00,,,0.00,WUHU216HW,2013-03-29 02:35:00,
2013-03-28 19:40:00,50.8,39.0,27.53,SW,225,0.0,0.0,64,0.00,,,0.00,WUHU216HW,2013-03-29 02:40:00,
2013-03-28 19:45:00,50.0,38.4,27.53,SW,225,0.0,0.0,64,0.00,,,0.00,WUHU216HW,2013-03-29 02:45:00,
2013-03-28 19:50:00,49.7,38.3,27.53,SW,225,0.0,0.0,65,0.00,,,0.00,WUHU216HW,2013-03-29 02:50:00,
2013-03-28 19:55:00,49.3,38.4,27.53,SW,225,0.0,0.0,66,0.00,,,0.00,WUHU216HW,2013-03-29 02:55:00,
2013-03-28 20:00:00,49.0,38.4,27.53,SW,225,0.0,0.0,67,0.00,,,0.00,WUHU216HW,2013-03-29 03:00:00,
2013-03-28 20:05:00,48.6,38.5,27.53,SW,225,0.0,0.0,68,0.00,,,0.00,WUHU216HW,2013-03-29 03:05:00,
2013-03-28 20:10:00,48.1,38.0,27.53,SW,225,0.0,0.0,68,0.00,,,0.00,WUHU216HW,2013-03-29 03:10:00,
2013-03-28 20:15:00,47.5,37.9,27.53,SW,225,0.0,0.0,69,0.00,,,0.00,WUHU216HW,2013-03-29 03:15:00,
2013-03-28 20:20:00,47.2,37.5,27.53,SE,135,0.0,0.0,69,0.00,,,0.00,WUHU216HW,2013-03-29 03:20:00,
2013-03-28 20:25:00,47.2,38.3,27.53,SE,135,0.0,0.0,71,0.00,,,0.00,WUHU216HW,2013-03-29 03:25:00,
2013-03-28 20:30:00,47.0,38.1,27.53,ESE,113,0.0,0.0,71,0.00,,,0.00,WUHU216HW,2013-03-29 03:30:00,
2013-03-28 20:35:00,46.8,37.9,27.54,ESE,113,0.0,0.0,71,0.00,,,0.00,WUHU216HW,2013-03-29 03:35:00,
2013-03-28 20:40:00,46.6,38.1,27.54,ESE,113,0.0,0.0,72,0.00,,,0.00,WUHU216HW,2013-03-29 03:40:00,
2013-03-28 20:45:00,46.4,38.0,27.54,ESE,113,0.0,0.0,72,0.00,,,0.00,WUHU216HW,2013-03-29 03:45:00,
2013-03-28 20:50:00,46.1,37.9,27.54,ESE,113,0.0,0.0,73,0.00,,,0.00,WUHU216HW,2013-03-29 03:50:00,
2013-03-28 20:55:00,45.9,37.7,27.54,ESE,113,0.0,0.0,73,0.00,,,0.00,WUHU216HW,2013-03-29 03:55:00,
2013-03-28 21:00:00,45.9,38.1,27.54,ESE,113,0.0,0.0,74,0.00,,,0.00,WUHU216HW,2013-03-29 04:00:00,
2013-03-28 21:05:00,45.7,37.9,27.54,ESE,113,0.0,0.0,74,0.00,,,0.00,WUHU216HW,2013-03-29 04:05:00,
2013-03-28 21:10:00,45.7,37.5,27.55,ESE,113,0.0,0.0,73,0.00,,,0.00,WUHU216HW,2013-03-29 04:10:00,
2013-03-28 21:15:00,45.5,38.1,27.55,ESE,113,0.4,0.4,75,0.00,,,0.00,WUHU216HW,2013-03-29 04:15:00,
2013-03-28 21:20:00,45.2,37.4,27.55,ESE,113,0.0,0.4,74,0.00,,,0.00,WUHU216HW,2013-03-29 04:20:00,
2013-03-28 21:25:00,45.0,37.2,27.55,ESE,113,0.0,0.0,74,0.00,,,0.00,WUHU216HW,2013-03-29 04:25:00,
2013-03-28 21:30:00,44.8,37.4,27.55,ESE,113,0.0,0.0,75,0.00,,,0.00,WUHU216HW,2013-03-29 04:30:00,
2013-03-28 21:35:00,44.5,37.0,27.55,ESE,113,0.0,0.0,75,0.00,,,0.00,WUHU216HW,2013-03-29 04:35:00,
2013-03-28 21:40:00,44.3,37.2,27.55,ESE,113,0.0,0.0,76,0.00,,,0.00,WUHU216HW,2013-03-29 04:40:00,
2013-03-28 21:45:00,44.1,37.0,27.55,ESE,113,0.0,0.4,76,0.00,,,0.00,WUHU216HW,2013-03-29 04:45:00,
2013-03-28 21:50:00,43.9,36.8,27.55,ESE,113,0.0,0.4,76,0.00,,,0.00,WUHU216HW,2013-03-29 04:50:00,
2013-03-28 21:55:00,43.7,37.0,27.55,ESE,113,0.0,0.0,77,0.00,,,0.00,WUHU216HW,2013-03-29 04:55:00,
2013-03-28 22:00:00,43.6,36.8,27.56,East,90,0.4,0.4,77,0.00,,,0.00,WUHU216HW,2013-03-29 05:00:00,
2013-03-28 22:05:00,43.4,36.6,27.56,East,90,0.0,0.4,77,0.00,,,0.00,WUHU216HW,2013-03-29 05:05:00,
2013-03-28 22:10:00,43.0,36.3,27.56,East,90,0.0,0.4,77,0.00,,,0.00,WUHU216HW,2013-03-29 05:10:00,
2013-03-28 22:15:00,42.8,36.5,27.56,East,90,0.0,0.4,78,0.00,,,0.00,WUHU216HW,2013-03-29 05:15:00,
2013-03-28 22:20:00,42.7,36.3,27.56,East,90,0.0,0.4,78,0.00,,,0.00,WUHU216HW,2013-03-29 05:20:00,
2013-03-28 22:25:00,42.5,36.4,27.56,East,90,0.0,0.4,79,0.00,,,0.00,WUHU216HW,2013-03-29 05:25:00,
2013-03-28 22:30:00,42.3,36.2,27.56,East,90,0.0,0.0,79,0.00,,,0.00,WUHU216HW,2013-03-29 05:30:00,
2013-03-28 22:35:00,42.1,36.4,27.56,East,90,0.0,0.4,80,0.00,,,0.00,WUHU216HW,2013-03-29 05:35:00,
2013-03-28 22:40:00,42.1,36.4,27.56,East,90,0.4,0.4,80,0.00,,,0.00,WUHU216HW,2013-03-29 05:40:00,
2013-03-28 22:45:00,42.1,36.6,27.56,East,90,0.0,0.4,81,0.00,,,0.00,WUHU216HW,2013-03-29 05:45:00,
2013-03-28 22:50:00,42.1,36.6,27.56,East,90,0.0,0.4,81,0.00,,,0.00,WUHU216HW,2013-03-29 05:50:00,
2013-03-28 22:55:00,42.1,36.6,27.56,East,90,0.0,0.4,81,0.00,,,0.00,WUHU216HW,2013-03-29 05:55:00,
2013-03-28 23:00:00,41.9,36.5,27.56,East,90,0.0,0.0,81,0.00,,,0.00,WUHU216HW,2013-03-29 06:00:00,
2013-03-28 23:05:00,41.8,36.6,27.56,East,90,0.0,0.0,82,0.00,,,0.00,WUHU216HW,2013-03-29 06:05:00,
2013-03-28 23:10:00,41.4,36.3,27.56,East,90,0.0,0.0,82,0.00,,,0.00,WUHU216HW,2013-03-29 06:10:00,
2013-03-28 23:15:00,41.0,35.6,27.56,East,90,0.0,0.0,81,0.00,,,0.00,WUHU216HW,2013-03-29 06:15:00,
2013-03-28 23:20:00,40.7,35.3,27.56,East,90,0.0,0.0,81,0.00,,,0.00,WUHU216HW,2013-03-29 06:20:00,
2013-03-28 23:25:00,40.3,35.2,27.56,East,90,0.0,0.0,82,0.00,,,0.00,WUHU216HW,2013-03-29 06:25:00,
2013-03-28 23:30:00,40.0,34.9,27.56,East,90,0.4,0.4,82,0.00,,,0.00,WUHU216HW,2013-03-29 06:30:00,
2013-03-28 23:35:00,39.8,35.0,27.57,East,90,0.0,0.4,83,0.00,,,0.00,WUHU216HW,2013-03-29 06:35:00,
2013-03-28 23:40:00,39.6,34.8,27.57,East,90,0.7,0.7,83,0.00,,,0.00,WUHU216HW,2013-03-29 06:40:00,
2013-03-28 23:45:00,39.2,34.8,27.57,East,90,0.0,0.7,84,0.00,,,0.00,WUHU216HW,2013-03-29 06:45:00,
2013-03-28 23:50:00,39.1,34.7,27.57,East,90,0.0,0.4,84,0.00,,,0.00,WUHU216HW,2013-03-29 06:50:00,
2013-03-28 23:55:00,38.7,34.3,27.57,East,90,0.0,0.0,84,0.00,,,0.00,WUHU216HW,2013-03-29 06:55:00,